Location: Peach Mountain Observatory
(42.3967°N, 83.9367°W)
Time: 20:48:30
(UTC-05:00)

Tiros 1 despin weight - Pass Details

Date: 27 January 2020
Orbit: 594 x 642 km, 48.2° (Epoch: 16 February)

Event Time Altitude Azimuth Distance (km) Brightness Sun altitude
Rises 18:27:15 0° 281° (W) 2,923 ? -8.5°
Reaches altitude 10° 18:31:19 10° 246° (WSW) 2,019 ? -9.2°
Maximum altitude 18:32:37 11° 230° (SW) 1,948 ? -9.5°
Drops below altitude 10° 18:33:55 10° 213° (SSW) 2,019 ? -9.7°
Sets 18:38:00 0° 178° (S) 2,926 ? -10.4°
